Regional Weather Roundup
Issued by NWS

Home | Current Version | Previous Version | Text Only | Print | Product List | Glossary Off
Versions: 1 2 3 4 5 6 7 8 9 10 11 12 13 14 15 16 17 18 19 20 21 22 23 24 25 26 27 28 29 30 31 32 33 34 35 36 37 38 39 40 41 42 43 44 45 46 47 48 49 50

000
ASUS43 KLMK 310102
RWRKY
KENTUCKY REGIONAL WEATHER ROUNDUP
NATIONAL WEATHER SERVICE LOUISVILLE KY
900 PM EDT SAT JUL 30 2016

NOTE "FAIR" INDICATES FEW OR NO CLOUDS BELOW 12,000 FEET
WITH NO SIGNIFICANT WEATHER AND/OR OBSTRUCTIONS TO VISIBILITY.

KYZ001>023-026-027-061>063-070>075-310200-
WESTERN AND SOUTH CENTRAL KENTUCKY

CITY           SKY/WX    TMP DP  RH WIND       PRES   REMARKS
PADUCAH        CLOUDY    79  72  79 CALM      29.95R
HENDERSON      CLEAR     79  72  78 W3        29.94S
OWENSBORO      PTCLDY    82  71  69 NW3       29.96R
HOPKINSVILLE   CLEAR     81  72  75 CALM      29.96R
BOWLING GREEN  CLEAR     78  71  79 E3        29.97R
GLASGOW        NOT AVBL
$$

KYZ024-025-028>034-038-045-046-053-310200-
NORTH CENTRAL KENTUCKY

CITY           SKY/WX    TMP DP  RH WIND       PRES   REMARKS
LOUISVILLE/SDF MOCLDY    78  66  66 SW3       29.94F
LOUISVILLE/LOU PTCLDY    79  70  74 CALM      29.95F
FORT KNOX      CLEAR     75  70  83 CALM      29.96R
$$

KYZ035>037-039>044-047>052-055>060-089>105-310200-
NORTHEAST KENTUCKY

CITY           SKY/WX    TMP DP  RH WIND       PRES   REMARKS
LEXINGTON      MOCLDY    76  69  79 S5        29.99R
COVINGTON      PTCLDY    77  70  79 W3        29.95S
FRANKFORT      PTCLDY    75  71  87 CALM      29.96R
$$

KYZ054-064>069-076>088-106>120-310200-
SOUTHEAST KENTUCKY

CITY           SKY/WX    TMP DP  RH WIND       PRES   REMARKS
JACKSON        CLOUDY    76  70  82 CALM      30.00R
LONDON         CLEAR     81  67  62 SW3       30.00R
SOMERSET       PTCLDY    77  70  78 W3        30.00R
MIDDLESBORO    PTCLDY    75  72  90 SW5       30.01S
MONTICELLO     PTCLDY   N/A N/A N/A W13       30.01R
$$





USA.gov is the U.S. government's official web portal to all federal, state and local government web resources and services.